Location: Unspecified
(41.1637°N, 24.2901°E)
Time: 12:20:19
(UTC+01:00)

ISS - Pass Details

Date: 03 December 2021
Orbit: 417 x 423 km, 51.6° (Epoch: 29 November)

Event Time Altitude Azimuth Distance (km) Brightness Sun altitude
Rises 17:11:37 0° 310° (NW) 2,380 0.6 -14.2°
Reaches altitude 10° 17:13:59 10° 324° (NW) 1,512 -0.7 -14.6°
Maximum altitude 17:16:50 24° 22° (NNE) 912 -2.4 -15.1°
Enters shadow 17:17:07 24° 30° (NNE) 918 -2.4 -15.2°
